GW5727 Weather Reports


time (UTC)temp
C
wind
direction
speed
KPH
gust
KPH
rain 1hr
cm
rain 24hr
cm
rain mn
cm
humidity
%
barometer
mb
20260510045255 6 271 0.0 0.0 0.00 0.00 0.00 98 1013.6
20260510044753 6 274 0.0 1.6 0.00 0.00 0.00 98 1013.7
20260510044250 6 274 0.0 0.0 0.00 0.00 0.00 98 1013.8
20260510043746 6 275 0.0 0.0 0.00 0.00 0.00 98 1013.8
20260510043242 6 262 0.0 0.0 0.00 0.00 0.00 98 1013.8
20260510042740 6 274 0.0 0.0 0.00 0.00 0.00 98 1013.8
20260510042235 6 270 0.0 0.0 0.00 0.00 0.00 98 1013.7
20260510041732 6 278 0.0 0.0 0.00 0.00 0.00 97 1013.5
20260510041230 7 274 0.0 0.0 0.00 0.00 0.00 97 1013.6
20260510040727 7 274 0.0 0.0 0.00 0.00 0.00 96 1013.6
20260510040223 7 270 0.0 0.0 0.00 0.00 0.00 96 1013.8
20260510035718 7 274 0.0 1.6 0.00 0.00 0.00 96 1013.7
20260510035215 7 272 0.0 0.0 0.00 0.00 0.00 96 1013.7
20260510034711 7 271 0.0 0.0 0.00 0.00 0.00 95 1013.9
20260510034209 7 266 0.0 0.0 0.00 0.00 0.00 95 1013.5
20260510033704 7 296 0.0 0.0 0.00 0.00 0.00 94 1013.6
20260510033203 7 274 0.0 0.0 0.00 0.00 0.00 94 1013.6
20260510032659 8 273 1.6 1.6 0.00 0.00 0.00 93 1013.9
20260510032154 8 278 1.6 1.6 0.00 0.00 0.00 93 1013.4
20260510031649 8 285 1.6 1.6 0.00 0.00 0.00 93 1013.6
20260510031147 8 263 0.0 0.0 0.00 0.00 0.00 93 1013.5
20260510030646 8 267 0.0 0.0 0.00 0.00 0.00 93 1013.5
20260510030144 8 279 0.0 1.6 0.00 0.00 0.00 92 1013.6
20260510025641 8 274 0.0 0.0 0.00 0.00 0.00 92 1013.6
20260510025138 8 269 0.0 0.0 0.00 0.00 0.00 92 1013.6
20260510024635 8 266 0.0 0.0 0.00 0.00 0.00 92 1013.4
20260510024132 8 267 0.0 0.0 0.00 0.00 0.00 91 1013.4
20260510023627 8 269 0.0 0.0 0.00 0.00 0.00 90 1013.4
20260510023125 8 270 0.0 0.0 0.00 0.00 0.00 90 1013.4
20260510022625 8 281 0.0 1.6 0.00 0.00 0.00 90 1013.1
20260510022120 9 275 0.0 0.0 0.00 0.00 0.00 89 1013.2
20260510021616 10 286 1.6 1.6 0.00 0.00 0.00 89 1013.0
20260510021114 10 273 1.6 1.6 0.00 0.00 0.00 87 1013.0
20260510020608 10 285 1.6 1.6 0.00 0.00 0.00 87 1012.9
20260510020104 10 270 0.0 0.0 0.00 0.00 0.00 86 1012.7
20260510015600 10 271 0.0 1.6 0.00 0.00 0.00 86 1012.7
20260510015057 10 272 0.0 0.0 0.00 0.00 0.00 85 1012.5
20260510014552 10 270 0.0 0.0 0.00 0.00 0.00 85 1012.4
20260510014049 11 269 0.0 0.0 0.00 0.00 0.00 84 1012.5
20260510013544 11 269 0.0 0.0 0.00 0.00 0.00 84 1012.3
20260510013040 11 243 0.0 1.6 0.00 0.00 0.00 84 1012.4
20260510012534 11 270 0.0 1.6 0.00 0.00 0.00 84 1012.2
20260510012031 11 267 0.0 1.6 0.00 0.00 0.00 83 1012.0
20260510011530 11 267 0.0 0.0 0.00 0.00 0.00 83 1012.3
20260510011026 12 279 1.6 1.6 0.00 0.00 0.00 82 1012.1
20260510010523 12 278 0.0 0.0 0.00 0.00 0.00 81 1012.1
20260510010020 12 270 1.6 1.6 0.00 0.00 0.00 80 1012.0
20260510005516 12 273 1.6 1.6 0.00 0.00 0.00 80 1012.1
20260510005014 12 279 1.6 3.2 0.00 0.00 0.00 79 1011.8
20260510004511 13 268 0.0 0.0 0.00 0.00 0.00 77 1012.0
20260510004009 13 279 0.0 1.6 0.00 0.00 0.00 78 1011.4
20260510003505 13 275 0.0 0.0 0.00 0.00 0.00 77 1011.6
20260510003001 13 271 0.0 0.0 0.00 0.00 0.00 76 1011.1
20260510002457 13 272 0.0 0.0 0.00 0.00 0.00 75 1011.0
20260510001954 14 282 1.6 1.6 0.00 0.00 0.00 75 1011.0
20260510001451 14 275 1.6 1.6 0.00 0.00 0.00 73 1011.0
20260510000949 15 268 0.0 0.0 0.00 0.00 0.00 72 1010.8
20260510000444 15 266 0.0 0.0 0.00 0.00 0.00 70 1010.8
20260509235941 16 285 1.6 3.2 0.00 0.00 0.00 69 1010.9
20260509235438 16 258 0.0 0.0 0.00 0.00 0.00 66 1010.6
20260509234934 17 283 1.6 1.6 0.00 0.00 0.00 64 1010.7
20260509234431 18 277 0.0 0.0 0.00 0.00 0.00 60 1010.7
20260509233929 18 266 0.0 0.0 0.00 0.00 0.00 56 1010.8
20260509233426 18 261 0.0 0.0 0.00 0.00 0.00 53 1010.7
20260509232922 18 268 0.0 0.0 0.00 0.00 0.00 56 1010.6
20260509232420 18 240 0.0 1.6 0.00 0.00 0.00 56 1010.7
20260509231915 19 267 0.0 0.0 0.00 0.00 0.00 56 1010.7
20260509231413 20 282 1.6 3.2 0.00 0.00 0.00 52 1010.8
20260509230911 21 241 1.6 1.6 0.00 0.00 0.00 52 1010.6
20260509230407 21 262 0.0 0.0 0.00 0.00 0.00 48 1010.7
20260509225903 21 265 0.0 0.0 0.00 0.00 0.00 49 1010.7
20260509225400 21 262 0.0 0.0 0.00 0.00 0.00 48 1010.5
20260509224856 20 266 0.0 0.0 0.00 0.00 0.00 50 1010.6
20260509224351 20 268 0.0 1.6 0.00 0.00 0.00 55 1010.5
20260509223849 19 275 0.0 0.0 0.00 0.00 0.00 55 1010.6
20260509223345 19 275 0.0 1.6 0.00 0.00 0.00 54 1010.4
20260509222842 20 275 0.0 0.0 0.00 0.00 0.00 50 1010.8
20260509222337 20 274 0.0 0.0 0.00 0.00 0.00 55 1010.6
20260509221833 20 279 0.0 0.0 0.00 0.00 0.00 50 1010.6
20260509221331 20 278 0.0 1.6 0.00 0.00 0.00 50 1010.7
20260509220831 21 269 1.6 1.6 0.00 0.00 0.00 50 1010.6
20260509220327 21 302 1.6 1.6 0.00 0.00 0.00 52 1010.5
20260509215822 21 312 1.6 3.2 0.00 0.00 0.00 46 1010.5
20260509215320 21 290 0.0 1.6 0.00 0.00 0.00 50 1010.7
20260509214816 21 266 1.6 3.2 0.00 0.00 0.00 48 1010.6
20260509214313 21 250 0.0 1.6 0.00 0.00 0.00 46 1010.5
20260509213810 21 211 1.6 1.6 0.00 0.00 0.00 47 1010.5
20260509213306 21 247 0.0 0.0 0.00 0.00 0.00 46 1010.3
20260509212804 21 263 1.6 1.6 0.00 0.00 0.00 45 1010.3
20260509212301 21 265 0.0 0.0 0.00 0.00 0.00 46 1010.1
20260509211756 21 287 0.0 0.0 0.00 0.00 0.00 47 1010.0
20260509211253 21 285 1.6 1.6 0.00 0.00 0.00 44 1010.1
20260509210749 21 269 0.0 0.0 0.00 0.00 0.00 43 1010.1
20260509210247 21 278 1.6 3.2 0.00 0.00 0.00 45 1010.0
20260509205747 21 287 1.6 3.2 0.00 0.00 0.00 43 1010.0
20260509205242 21 282 1.6 1.6 0.00 0.00 0.00 48 1009.9
20260509204738 21 273 0.0 0.0 0.00 0.00 0.00 49 1009.6
20260509204234 21 281 0.0 1.6 0.00 0.00 0.00 42 1009.6
20260509203730 21 281 1.6 1.6 0.00 0.00 0.00 44 1009.4
20260509203229 21 274 1.6 1.6 0.00 0.00 0.00 46 1009.7
20260509202724 21 277 1.6 1.6 0.00 0.00 0.00 43 1009.7
20260509202220 21 265 0.0 1.6 0.00 0.00 0.00 44 1009.6
20260509201714 22 258 4.8 8.0 0.00 0.00 0.00 40 1009.6
20260509201212 22 225 1.6 1.6 0.00 0.00 0.00 39 1009.7
20260509200708 22 243 3.2 3.2 0.00 0.00 0.00 40 1009.3
20260509200203 22 217 4.8 8.0 0.00 0.00 0.00 40 1009.6
20260509195659 22 260 0.0 1.6 0.00 0.00 0.00 40 1009.6
20260509195155 23 285 4.8 4.8 0.00 0.00 0.00 41 1009.6
20260509194654 23 257 1.6 1.6 0.00 0.00 0.00 42 1009.7
20260509194152 23 165 8.0 9.7 0.00 0.00 0.00 44 1009.7
20260509193647 23 47 8.0 9.7 0.00 0.00 0.00 43 1009.7
20260509193143 23 154 4.8 8.0 0.00 0.00 0.00 43 1009.7
20260509192640 22 253 0.0 0.0 0.00 0.00 0.00 43 1009.7
20260509192135 21 265 0.0 1.6 0.00 0.00 0.00 47 1010.2
20260509191635 21 243 1.6 1.6 0.00 0.00 0.00 48 1010.2
20260509191132 22 215 1.6 1.6 0.00 0.00 0.00 48 1010.1
20260509190628 20 252 3.2 3.2 0.00 0.00 0.00 48 1010.1
20260509190126 21 32 4.8 4.8 0.00 0.00 0.00 50 1010.3
20260509185623 20 244 1.6 3.2 0.00 0.00 0.00 52 1010.3
20260509185119 21 269 1.6 1.6 0.00 0.00 0.00 50 1010.2
20260509184618 20 78 3.2 3.2 0.00 0.00 0.00 51 1010.5
20260509184114 20 273 4.8 4.8 0.00 0.00 0.00 51 1010.4
20260509183609 23 57 4.8 8.0 0.00 0.00 0.00 48 1010.2
20260509183105 22 231 1.6 1.6 0.00 0.00 0.00 47 1010.4
20260509182602 22 99 1.6 1.6 0.00 0.00 0.00 48 1010.5
20260509182059 21 271 3.2 3.2 0.00 0.00 0.00 51 1010.4
20260509181557 20 60 8.0 9.7 0.00 0.00 0.00 53 1010.7
20260509181054 21 146 4.8 4.8 0.00 0.00 0.00 50 1010.7
20260509180550 20 286 4.8 4.8 0.00 0.00 0.00 52 1010.7
20260509180047 21 351 3.2 4.8 0.00 0.00 0.00 52 1011.0
20260509175542 20 268 0.0 0.0 0.00 0.00 0.00 54 1011.2
20260509175040 18 311 4.8 4.8 0.00 0.00 0.00 55 1011.1
20260509174536 19 277 3.2 4.8 0.00 0.00 0.00 57 1011.2
20260509174031 18 307 1.6 1.6 0.00 0.00 0.00 56 1011.4
20260509173526 17 208 1.6 1.6 0.00 0.00 0.00 60 1011.5
20260509173022 17 280 0.0 1.6 0.00 0.00 0.00 60 1011.8
20260509172520 18 278 1.6 1.6 0.00 0.00 0.00 58 1012.0
20260509172015 18 237 3.2 3.2 0.00 0.00 0.00 57 1011.7
20260509171512 17 269 1.6 1.6 0.00 0.00 0.00 61 1011.6
20260509171008 17 275 3.2 3.2 0.00 0.00 0.00 60 1011.4
20260509170504 17 285 0.0 0.0 0.00 0.00 0.00 58 1011.5
20260509165959 17 355 3.2 4.8 0.00 0.00 0.00 56 1011.6
20260509165458 18 244 1.6 1.6 0.00 0.00 0.00 55 1011.5
20260509164955 18 293 1.6 1.6 0.00 0.00 0.00 55 1011.4
20260509164450 18 205 1.6 3.2 0.00 0.00 0.00 54 1011.3
20260509163946 19 220 3.2 3.2 0.00 0.00 0.00 50 1011.3
20260509163444 20 274 1.6 1.6 0.00 0.00 0.00 48 1011.2
20260509162943 20 255 1.6 1.6 0.00 0.00 0.00 45 1011.2
20260509162442 20 276 1.6 1.6 0.00 0.00 0.00 44 1011.3
20260509161938 20 312 1.6 1.6 0.00 0.00 0.00 46 1011.3
20260509161434 20 301 1.6 1.6 0.00 0.00 0.00 45 1011.5
20260509160930 20 266 3.2 3.2 0.00 0.00 0.00 46 1011.5
20260509160426 20 268 1.6 1.6 0.00 0.00 0.00 48 1011.2
20260509155921 20 213 1.6 1.6 0.00 0.00 0.00 49 1011.3
20260509155418 20 303 0.0 1.6 0.00 0.00 0.00 50 1011.5
20260509154914 20 209 3.2 8.0 0.00 0.00 0.00 48 1011.3
20260509154411 20 258 6.4 9.7 0.00 0.00 0.00 49 1011.3
20260509153907 20 281 1.6 3.2 0.00 0.00 0.00 49 1011.4
20260509153405 19 263 3.2 4.8 0.00 0.00 0.00 48 1011.3
20260509152902 19 289 1.6 1.6 0.00 0.00 0.00 50 1011.4
20260509152358 19 260 1.6 1.6 0.00 0.00 0.00 48 1011.4
20260509151855 20 278 1.6 1.6 0.00 0.00 0.00 49 1011.1
20260509151350 20 220 1.6 1.6 0.00 0.00 0.00 49 1011.1
20260509150849 19 76 3.2 4.8 0.00 0.00 0.00 49 1011.3
20260509150347 20 297 1.6 1.6 0.00 0.00 0.00 47 1011.5
20260509145844 20 278 3.2 3.2 0.00 0.00 0.00 46 1011.5
20260509145344 20 231 0.0 0.0 0.00 0.00 0.00 46 1011.3
20260509144841 20 264 0.0 0.0 0.00 0.00 0.00 46 1011.3
20260509144338 20 269 1.6 3.2 0.00 0.00 0.00 44 1011.6
20260509143835 20 284 3.2 3.2 0.00 0.00 0.00 44 1011.4
20260509143332 20 289 4.8 4.8 0.00 0.00 0.00 45 1011.4
20260509142828 19 259 3.2 3.2 0.00 0.00 0.00 44 1011.5
20260509142325 19 288 1.6 3.2 0.00 0.00 0.00 47 1011.5
20260509141820 20 346 4.8 4.8 0.00 0.00 0.00 43 1011.4
20260509141318 20 278 3.2 3.2 0.00 0.00 0.00 46 1011.8
20260509140814 20 120 1.6 1.6 0.00 0.00 0.00 47 1011.8
20260509140311 18 143 4.8 4.8 0.00 0.00 0.00 54 1011.7
20260509135809 18 223 4.8 4.8 0.00 0.00 0.00 52 1012.2
20260509135306 17 256 3.2 3.2 0.00 0.00 0.00 56 1012.1
20260509134803 17 280 1.6 1.6 0.00 0.00 0.00 57 1012.1
20260509134301 17 254 0.0 1.6 0.00 0.00 0.00 58 1012.3
20260509133757 16 352 4.8 4.8 0.00 0.00 0.00 63 1012.3
20260509133254 16 276 1.6 3.2 0.00 0.00 0.00 59 1012.6
20260509132753 16 274 0.0 1.6 0.00 0.00 0.00 68 1012.6
20260509132251 15 253 0.0 0.0 0.00 0.00 0.00 64 1012.8
20260509131747 14 283 0.0 1.6 0.00 0.00 0.00 68 1012.5
20260509131244 14 274 0.0 0.0 0.00 0.00 0.00 70 1012.6
20260509130740 14 269 1.6 1.6 0.00 0.00 0.00 67 1012.5
20260509130236 14 265 0.0 0.0 0.00 0.00 0.00 66 1012.5
20260509125733 14 263 0.0 0.0 0.00 0.00 0.00 65 1012.4
20260509125230 13 262 0.0 0.0 0.00 0.00 0.00 65 1012.2
20260509124726 13 237 1.6 1.6 0.00 0.00 0.00 70 1012.1
20260509124223 13 293 0.0 0.0 0.00 0.00 0.00 69 1012.6
20260509123721 13 269 0.0 0.0 0.00 0.00 0.00 71 1012.5
20260509123218 12 257 0.0 0.0 0.00 0.00 0.00 74 1012.4
20260509122713 12 242 1.6 1.6 0.00 0.00 0.00 74 1012.4
20260509122211 12 264 0.0 0.0 0.00 0.00 0.00 77 1012.4
20260509121707 12 271 0.0 0.0 0.00 0.00 0.00 78 1012.4
20260509121205 11 287 1.6 1.6 0.00 0.00 0.00 78 1012.4
20260509120703 11 277 0.0 0.0 0.00 0.00 0.00 78 1012.2
20260509120201 11 265 0.0 0.0 0.00 0.00 0.00 81 1012.4
20260509115658 11 284 0.0 1.6 0.00 0.00 0.00 80 1012.5
20260509115155 11 270 0.0 0.0 0.00 0.00 0.00 81 1012.4
20260509114653 11 283 1.6 1.6 0.00 0.00 0.00 81 1012.5
20260509114152 11 277 0.0 0.0 0.00 0.00 0.00 81 1012.5
20260509113650 11 270 0.0 0.0 0.00 0.00 0.00 80 1012.6
20260509113147 11 294 1.6 1.6 0.00 0.00 0.00 79 1012.6
20260509112643 11 269 0.0 0.0 0.00 0.00 0.00 79 1012.3
20260509112141 11 275 0.0 0.0 0.00 0.00 0.00 78 1012.3
20260509111638 11 271 0.0 0.0 0.00 0.00 0.00 77 1012.3
20260509111134 11 271 0.0 0.0 0.00 0.00 0.00 77 1012.1
20260509110632 11 276 0.0 1.6 0.00 0.00 0.00 78 1012.1
20260509110129 11 263 0.0 0.0 0.00 0.00 0.00 76 1012.2
20260509105627 10 260 0.0 0.0 0.00 0.00 0.00 77 1012.4
20260509105124 10 264 0.0 0.0 0.00 0.00 0.00 77 1012.2
20260509104621 10 264 0.0 0.0 0.00 0.00 0.00 75 1012.1
20260509104117 11 271 0.0 0.0 0.00 0.00 0.00 74 1012.2
20260509103616 11 245 1.6 1.6 0.00 0.00 0.00 74 1012.2
20260509103113 11 248 1.6 1.6 0.00 0.00 0.00 74 1012.2
20260509102610 11 229 3.2 3.2 0.00 0.00 0.00 73 1012.0
20260509102107 11 272 0.0 0.0 0.00 0.00 0.00 75 1012.3
20260509101603 11 265 0.0 0.0 0.00 0.00 0.00 74 1012.2
20260509101100 11 272 0.0 0.0 0.00 0.00 0.00 74 1012.2
20260509100557 12 264 0.0 0.0 0.00 0.00 0.00 73 1012.3
20260509100055 13 277 0.0 0.0 0.00 0.00 0.00 71 1012.0
20260509095551 13 273 0.0 0.0 0.00 0.00 0.00 66 1012.1
20260509095049 13 280 1.6 1.6 0.00 0.00 0.00 65 1012.1
20260509094545 13 273 0.0 1.6 0.00 0.00 0.00 64 1012.0
20260509094042 13 266 0.0 0.0 0.00 0.00 0.00 62 1012.1
20260509093541 14 281 1.6 1.6 0.00 0.00 0.00 62 1012.2
20260509093038 14 273 0.0 0.0 0.00 0.00 0.00 60 1012.1
20260509092536 14 283 1.6 1.6 0.00 0.00 0.00 61 1012.3
20260509092034 15 283 1.6 1.6 0.00 0.00 0.00 60 1012.4
20260509091531 14 263 4.8 4.8 0.00 0.00 0.00 59 1012.2
20260509091028 13 279 6.4 8.0 0.00 0.00 0.00 61 1012.4
20260509090525 13 230 1.6 3.2 0.00 0.00 0.00 61 1012.3
20260509090023 14 283 1.6 1.6 0.00 0.00 0.00 60 1012.2
20260509085519 14 265 0.0 1.6 0.00 0.00 0.00 59 1012.3
20260509085015 14 264 1.6 1.6 0.00 0.00 0.00 60 1012.3
20260509084513 14 227 0.0 1.6 0.00 0.00 0.00 59 1012.3
20260509084010 13 286 1.6 1.6 0.00 0.00 0.00 60 1012.5
20260509083507 14 273 1.6 1.6 0.00 0.00 0.00 58 1012.5
20260509083004 14 256 0.0 0.0 0.00 0.00 0.00 58 1012.6
20260509082501 14 264 0.0 0.0 0.00 0.00 0.00 58 1012.5
20260509081958 14 226 0.0 1.6 0.00 0.00 0.00 58 1012.5
20260509081455 13 256 0.0 0.0 0.00 0.00 0.00 58 1012.5
20260509080952 14 288 3.2 3.2 0.00 0.00 0.00 58 1012.5
20260509080450 14 266 1.6 3.2 0.00 0.00 0.00 58 1012.7
20260509075948 14 280 0.0 1.6 0.00 0.00 0.00 57 1012.8
20260509075445 14 268 4.8 4.8 0.00 0.00 0.00 57 1012.4
20260509074943 14 310 3.2 4.8 0.00 0.00 0.00 57 1012.8
20260509074440 14 203 1.6 1.6 0.00 0.00 0.00 56 1012.8
20260509073936 14 214 3.2 3.2 0.00 0.00 0.00 56 1012.7
20260509073433 14 276 1.6 1.6 0.00 0.00 0.00 56 1012.8
20260509072929 13 301 1.6 1.6 0.00 0.00 0.00 56 1012.8
20260509072426 13 266 1.6 1.6 0.00 0.00 0.00 58 1012.9
20260509071922 13 265 0.0 0.0 0.00 0.00 0.00 59 1012.8
20260509071419 13 272 0.0 1.6 0.00 0.00 0.00 60 1012.9
20260509070917 13 281 0.0 1.6 0.00 0.00 0.00 61 1013.0
20260509070414 12 301 1.6 3.2 0.00 0.00 0.00 65 1012.8
20260509065909 12 249 1.6 1.6 0.00 0.00 0.00 67 1013.0
20260509065406 11 272 1.6 1.6 0.00 0.00 0.00 67 1013.1
20260509064902 11 262 1.6 1.6 0.00 0.00 0.00 72 1013.0
20260509064400 11 276 1.6 1.6 0.00 0.00 0.00 72 1013.2
20260509063857 10 253 1.6 3.2 0.00 0.00 0.00 69 1013.2
20260509063353 10 267 0.0 0.0 0.00 0.00 0.00 76 1013.2
20260509062850 10 266 0.0 0.0 0.00 0.00 0.00 76 1013.2
20260509062347 10 272 0.0 0.0 0.00 0.00 0.00 76 1013.2
20260509061844 10 282 0.0 0.0 0.00 0.00 0.00 78 1013.2
20260509061343 10 264 0.0 0.0 0.00 0.00 0.00 76 1013.5
20260509060839 9 262 0.0 0.0 0.00 0.00 0.00 78 1013.5
20260509060336 8 265 3.2 3.2 0.00 0.00 0.00 81 1013.4
20260509055831 8 271 1.6 1.6 0.00 0.00 0.00 83 1013.3
20260509055327 8 272 1.6 1.6 0.00 0.00 0.00 85 1013.3
20260509054824 7 268 1.6 3.2 0.00 0.00 0.00 85 1013.4
20260509054321 7 272 0.0 0.0 0.00 0.00 0.00 87 1013.6
20260509053819 7 249 0.0 1.6 0.00 0.00 0.00 87 1013.6
20260509053316 7 287 4.8 4.8 0.00 0.00 0.00 87 1013.5
20260509052814 7 277 1.6 1.6 0.00 0.00 0.00 87 1013.5
20260509052311 7 275 0.0 1.6 0.00 0.00 0.00 87 1013.7
20260509051809 7 290 3.2 3.2 0.00 0.00 0.00 87 1013.8
20260509051307 7 277 0.0 0.0 0.00 0.00 0.00 86 1013.7
20260509050803 7 289 1.6 1.6 0.00 0.00 0.00 86 1013.7
20260509050300 8 280 1.6 1.6 0.00 0.00 0.00 85 1013.7
20260509045757 8 264 0.0 0.0 0.00 0.00 0.00 85 1013.6